AirNav   ProFlight Series 2 Aviation Headset
 
 298 users online  

0GA9 Gentle Landings Air Park
Roberta, Georgia, USA

GOING TO ROBERTA?


FAA INFORMATION EFFECTIVE 18 JUNE 2020

Location

FAA Identifier: 0GA9
Lat/Long: 32-42-48.9450N 084-01-42.7400W
32-42.815750N 084-01.712333W
32.7135958,-84.0285389
(estimated)
Elevation: 505 ft. / 154 m (estimated)
Variation: 02W (1990)
From city: 1 mile SW of ROBERTA, GA
Time zone: UTC -4 (UTC -5 during Standard Time)
Zip code: 31078

Airport Operations

Airport use: Private use. Permission required prior to landing
Activation date: 02/1995
Control tower: no
ARTCC: ATLANTA CENTER
FSS: MACON FLIGHT SERVICE STATION
Attendance: MON-SAT 0800-1700
Wind indicator: yes, WINDSOCK / SOUTH SIDE MID FIELD
Segmented circle: no

Airport Communications

WX AWOS-3 at 6A1 (14 nm SW): 119.525 (478-862-2966)
WX AWOS-3 at PXE (18 nm SE): 123.825 (478-987-8768)
WX AWOS-3 at OPN (19 nm NW): 133.975 (706-646-4123)
WX ASOS at MCN (19 nm E): 120.775 (478-784-8825)
  • 122.9 CTAF

Nearby radio navigation aids

VOR radial/distance  VOR name  Freq  Var
MCNr273/19.3MACON VORTAC114.2001E

 
NDB name  Hdg/Dist  Freq  Var  ID
YATES150/14.733903WOP --- .--.
MONTEZUMA001/20.842604WIZS .. --.. ...
LINDBERGH011/32.624204WLKG .-.. -.- --.

Airport Services

Fuel available: 100LL

Runway Information

Runway 7/25

Dimensions: 3500 x 125 ft. / 1067 x 38 m
Surface: turf
RUNWAY 7  RUNWAY 25
Latitude: 32-42.702500N32-42.929000N
Longitude: 084-02.026333W084-01.398333W
Elevation: 505.0 ft.505.0 ft.
Traffic pattern: leftleft

Airport Ownership and Management from official FAA records

Ownership: Privately-owned
Owner: OTHA DENT
PO BOX 11
ROBERTA, GA 31078
Phone 478-836-4433
Manager: KELLY DENT
1044 EAGLES BROOKE
LOCUST GROVE, GA 30248
Phone (404) 862-1615

Airport Operational Statistics

Aircraft based on the field: 5
Single engine airplanes: 4
Multi engine airplanes: 1
    

Additional Remarks

FOR CD CTC ATLANTA APCH AT 678-364-6132, WHEN APCH CLSD CTC ATLANTA ARTCC AT 770-210-7692.

Instrument Procedures

There are no published instrument procedures at 0GA9.

Some nearby airports with instrument procedures:

6A1 - Butler Municipal Airport (14 nm SW)
KPXE - Perry-Houston County Airport (18 nm SE)
KOPN - Thomaston-Upson County Airport (19 nm NW)
KMCN - Middle Georgia Regional Airport (19 nm E)
KWRB - Robins Air Force Base (22 nm E)
 
Loc | Ops | Rwys | IFR | FBO | Links
Com | Nav | Svcs | Stats | Notes
Area around 0GA9 (Gentle Landings Air Park)
 
Road maps at: MapQuest Bing Google
 
Aerial photo
WARNING: Photo may not be current or correct
Aerial photo of 0GA9 (Gentle Landings Air Park)
Do you have a better or more recent aerial photo of Gentle Landings Air Park that you would like to share? If so, please send us your photo.

 
Sectional chart

 
Airport distance calculator
Flying to Gentle Landings Air Park? Find the distance to fly.

From to 0GA9

Sunrise and sunset
Times for 09-Jul-2020
 Local
(UTC-4)
 Zulu
(UTC)
Morning civil twilight06:0910:09
Sunrise06:3710:37
Sunset20:4600:46
Evening civil twilight21:1401:14

Current date and time
Zulu (UTC)  09-Jul-2020 09:31:36
Local (UTC-4)  09-Jul-2020 05:31:36
 
METAR
K6A1 
14nm SW 
090915Z AUTO 29005KT 23/22 A2992 RMK AO2 T02260222 PWINO
KPXE 
18nm SE 
090915Z AUTO 29004KT 10SM BKN027 23/22 A2991 RMK AO2 T02260222
KOPN 
19nm NW 
090915Z AUTO 00000KT 10SM CLR 22/21 A2994 RMK AO2
KMCN 
19nm E 
090853Z AUTO 29004KT 10SM CLR 23/22 A2989 RMK AO2 SLP115 T02280217 55002
KWRB 
23nm E 
090856Z 34004KT 10SM CLR 23/23 A2988 RMK AO2A SLP118 T02330226 55002 $
TAF
KMCN 
19nm E 
090544Z 0906/1006 26003KT P6SM SKC FM091400 33004KT P6SM SCT025 BKN100 FM091800 30003KT P6SM SCT025 BKN040 FM100000 28003KT P6SM SCT040 FM100300 00000KT P6SM SCT250
KWRB 
23nm E 
090500Z 0905/1011 VRB06KT 9999 SCT060 SCT100 QNH2990INS BECMG 0908/0909 VRB03KT 9999 SCT030 BKN250 QNH2992INS BECMG 0917/0918 VRB06KT 9999 -SHRA SCT030 BKN250 QNH2987INS BECMG 0923/0924 VRB06KT 9999 NSW SCT030 QNH2990INS TX31/0921Z TN23/0910Z
NOTAMs
Click for the latest NOTAMs
NOTAMs are issued by the DoD/FAA and will open in a separate window not controlled by AirNav.

 

 
 

Would you like to see your business listed on this page?

 If your business provides an interesting product or service to pilots, flight crews, aircraft, or users of the Gentle Landings Air Park, you should consider listing it here.  To start the listing process, click on the button below
 
Add a business
 

Other Pages about Gentle Landings Air Park

www.gentlelandings.com
 
Update a link
 
Copyright © AirNav, LLC. All rights reserved. Privacy Policy  Contact